timestamp,wind_dir_avg,wind_spd_avg,wind_spd_max_dir,wind_spd_gust,battery_voltage,lat,long
2023-08-02 00:04:00+00:00,200.0,6.93,202.0,7.69,12.73,47.59359,-54.27349
2023-08-02 00:14:00+00:00,195.0,6.83,193.0,7.54,12.41,47.59359,-54.27349
2023-08-02 00:24:00+00:00,219.0,5.73,223.0,7.53,12.41,47.59359,-54.27349
2023-08-02 00:34:00+00:00,221.0,6.57,219.0,8.0,12.41,47.59359,-54.27349
2023-08-02 00:44:00+00:00,217.0,7.15,220.0,7.96,12.41,47.59359,-54.27349
2023-08-02 00:54:00+00:00,232.0,6.84,237.0,7.86,12.41,47.59359,-54.27349
2023-08-02 01:04:00+00:00,227.0,6.26,224.0,7.35,12.41,47.59359,-54.27349
2023-08-02 01:14:01+00:00,234.0,5.96,233.0,7.03,12.41,47.59359,-54.27349
2023-08-02 01:24:01+00:00,236.0,5.77,237.0,7.01,12.41,47.59359,-54.27349
2023-08-02 01:34:01+00:00,231.0,6.39,232.0,7.08,12.41,47.59359,-54.27349
2023-08-02 01:44:01+00:00,242.0,6.69,247.0,7.33,12.41,47.59359,-54.27349
2023-08-02 01:54:01+00:00,235.0,6.21,237.0,6.94,12.41,47.59359,-54.27349
2023-08-02 02:04:01+00:00,243.0,5.51,236.0,6.44,12.41,47.59359,-54.27349
2023-08-02 02:14:00+00:00,226.0,4.43,224.0,5.38,12.41,47.59359,-54.27349
2023-08-02 02:24:00+00:00,225.0,5.1,225.0,6.48,12.41,47.59359,-54.27349
2023-08-02 02:34:00+00:00,235.0,5.41,241.0,6.56,12.41,47.59359,-54.27349
2023-08-02 02:44:00+00:00,232.0,6.63,229.0,7.39,12.41,47.59359,-54.27349
2023-08-02 02:54:00+00:00,238.0,7.07,248.0,8.14,12.41,47.59359,-54.27349
2023-08-02 03:04:00+00:00,235.0,8.02,235.0,9.03,12.41,47.59359,-54.27349
2023-08-02 03:14:01+00:00,231.0,7.16,234.0,8.11,12.41,47.59359,-54.27349
2023-08-02 03:24:01+00:00,233.0,5.76,231.0,7.44,12.41,47.59359,-54.27349
2023-08-02 03:34:01+00:00,227.0,6.27,225.0,7.3,12.41,47.59359,-54.27349
2023-08-02 03:44:01+00:00,237.0,6.72,239.0,7.72,12.41,47.59359,-54.27349
2023-08-02 03:54:01+00:00,234.0,6.93,236.0,7.76,12.41,47.59359,-54.27349
2023-08-02 04:04:01+00:00,234.0,6.55,236.0,7.39,12.41,47.59359,-54.27349
2023-08-02 04:14:00+00:00,252.0,6.72,252.0,7.36,12.41,47.59359,-54.27349
2023-08-02 04:24:00+00:00,221.0,7.05,220.0,7.79,12.41,47.59359,-54.27349
2023-08-02 04:34:00+00:00,214.0,5.83,211.0,6.78,12.41,47.59359,-54.27349
2023-08-02 04:44:00+00:00,208.0,5.65,216.0,6.42,12.41,47.59359,-54.27349
2023-08-02 04:54:00+00:00,213.0,5.44,218.0,6.21,12.41,47.59359,-54.27349
2023-08-02 05:04:00+00:00,213.0,6.42,215.0,7.2,12.41,47.59359,-54.27349
2023-08-02 05:14:00+00:00,213.0,5.51,217.0,6.46,12.33,47.59359,-54.27349
2023-08-02 05:24:00+00:00,210.0,7.1,214.0,7.93,12.33,47.59359,-54.27349
2023-08-02 05:34:00+00:00,209.0,6.81,211.0,7.49,12.33,47.59359,-54.27349
2023-08-02 05:44:00+00:00,214.0,6.08,218.0,7.28,12.33,47.59359,-54.27349
2023-08-02 05:54:00+00:00,232.0,4.92,235.0,6.57,12.33,47.59359,-54.27349
2023-08-02 06:04:00+00:00,221.0,6.28,223.0,7.12,12.33,47.59359,-54.27349
2023-08-02 06:14:00+00:00,210.0,7.87,211.0,8.63,12.33,47.59359,-54.27349
2023-08-02 06:24:00+00:00,204.0,7.75,205.0,8.79,12.33,47.59359,-54.27349
2023-08-02 06:34:00+00:00,212.0,7.98,214.0,8.65,12.33,47.59359,-54.27349
2023-08-02 06:44:00+00:00,210.0,7.71,213.0,8.74,12.33,47.59359,-54.27349
2023-08-02 06:54:00+00:00,205.0,8.6,203.0,9.15,12.33,47.59359,-54.27349
2023-08-02 07:04:00+00:00,205.0,7.06,206.0,7.93,12.33,47.59359,-54.27349
2023-08-02 07:14:01+00:00,205.0,7.97,214.0,8.72,12.25,47.59359,-54.27349
2023-08-02 07:24:01+00:00,197.0,7.45,196.0,8.18,12.25,47.59359,-54.27349
2023-08-02 07:34:01+00:00,196.0,7.15,195.0,7.79,12.25,47.59359,-54.27349
2023-08-02 07:44:01+00:00,194.0,6.62,200.0,7.56,12.25,47.59359,-54.27349
2023-08-02 07:54:01+00:00,203.0,5.94,195.0,6.91,12.25,47.59359,-54.27349
2023-08-02 08:04:01+00:00,214.0,7.47,214.0,8.37,12.25,47.59359,-54.27349
2023-08-02 08:14:01+00:00,207.0,8.29,209.0,8.9,12.25,47.59359,-54.27349
2023-08-02 08:24:01+00:00,200.0,7.34,199.0,8.08,12.25,47.59359,-54.27349
2023-08-02 08:34:01+00:00,207.0,7.73,201.0,8.49,12.25,47.59359,-54.27349
2023-08-02 08:44:01+00:00,215.0,7.18,220.0,8.64,12.25,47.59359,-54.27349
2023-08-02 08:54:01+00:00,197.0,7.89,194.0,8.6,12.25,47.59359,-54.27349
2023-08-02 09:04:01+00:00,192.0,7.92,192.0,8.84,12.25,47.59359,-54.27349
2023-08-02 09:14:01+00:00,194.0,8.24,192.0,9.05,12.25,47.59359,-54.27349
2023-08-02 09:24:01+00:00,188.0,6.75,186.0,7.61,12.25,47.59359,-54.27349
2023-08-02 09:34:01+00:00,194.0,6.45,193.0,7.12,12.25,47.59359,-54.27349
2023-08-02 09:44:01+00:00,188.0,5.8,186.0,6.37,12.25,47.59359,-54.27349
2023-08-02 09:54:01+00:00,198.0,6.51,200.0,7.35,12.25,47.59359,-54.27349
2023-08-02 10:04:01+00:00,199.0,7.51,198.0,8.09,12.25,47.59359,-54.27349
2023-08-02 10:14:00+00:00,202.0,6.03,202.0,6.7,12.65,47.59359,-54.27349
2023-08-02 10:24:00+00:00,201.0,5.84,197.0,6.36,12.65,47.59359,-54.27349
2023-08-02 10:34:00+00:00,196.0,7.64,196.0,8.3,12.65,47.59359,-54.27349
2023-08-02 10:44:00+00:00,195.0,7.34,196.0,7.88,12.65,47.59359,-54.27349
2023-08-02 10:54:00+00:00,197.0,7.34,197.0,8.01,12.65,47.59359,-54.27349
2023-08-02 11:04:00+00:00,193.0,7.34,188.0,7.86,12.65,47.59359,-54.27349
2023-08-02 11:14:01+00:00,200.0,7.31,199.0,8.57,13.13,47.59359,-54.27349
2023-08-02 11:24:01+00:00,196.0,7.69,194.0,8.41,13.13,47.59359,-54.27349
2023-08-02 11:34:01+00:00,211.0,8.12,207.0,9.07,13.13,47.59359,-54.27349
2023-08-02 11:44:01+00:00,207.0,8.09,222.0,10.52,13.13,47.59359,-54.27349
2023-08-02 11:54:01+00:00,201.0,8.64,205.0,9.5,13.13,47.59359,-54.27349
2023-08-02 12:04:01+00:00,212.0,8.81,216.0,10.02,13.13,47.59359,-54.27349
2023-08-02 12:14:00+00:00,216.0,10.33,223.0,11.37,13.44,47.59359,-54.27349
2023-08-02 12:24:00+00:00,216.0,10.12,223.0,12.0,13.44,47.59359,-54.27349
2023-08-02 12:34:00+00:00,215.0,8.97,228.0,11.41,13.44,47.59359,-54.27349
2023-08-02 12:44:00+00:00,221.0,11.68,224.0,13.66,13.44,47.59359,-54.27349
2023-08-02 12:54:00+00:00,221.0,11.57,225.0,13.11,13.44,47.59359,-54.27349
2023-08-02 13:04:00+00:00,215.0,9.71,228.0,12.34,13.44,47.59359,-54.27349
2023-08-02 13:14:00+00:00,208.0,9.73,215.0,12.06,14.0,47.59359,-54.27349
2023-08-02 13:24:00+00:00,205.0,9.06,215.0,11.04,14.0,47.59359,-54.27349
2023-08-02 13:34:00+00:00,214.0,10.04,227.0,12.31,14.0,47.59359,-54.27349
2023-08-02 13:44:00+00:00,209.0,10.73,216.0,12.6,14.0,47.59359,-54.27349
2023-08-02 13:54:00+00:00,206.0,9.5,203.0,10.78,14.0,47.59359,-54.27349
2023-08-02 14:04:00+00:00,207.0,9.99,215.0,11.71,14.0,47.59359,-54.27349
2023-08-02 14:14:01+00:00,203.0,8.44,196.0,10.03,13.6,47.59359,-54.27349
2023-08-02 14:24:01+00:00,206.0,9.88,224.0,12.24,13.6,47.59359,-54.27349
2023-08-02 14:34:01+00:00,204.0,9.35,208.0,11.05,13.6,47.59359,-54.27349
2023-08-02 14:44:01+00:00,205.0,9.42,213.0,10.81,13.6,47.59359,-54.27349
2023-08-02 14:54:01+00:00,193.0,9.95,196.0,10.91,13.6,47.59359,-54.27349
2023-08-02 15:04:01+00:00,195.0,8.89,198.0,10.84,13.6,47.59359,-54.27349
2023-08-02 15:14:00+00:00,205.0,8.95,222.0,10.31,13.68,47.59359,-54.27349
2023-08-02 15:24:00+00:00,214.0,9.13,222.0,11.51,13.68,47.59359,-54.27349
2023-08-02 15:34:00+00:00,209.0,9.42,220.0,11.86,13.68,47.59359,-54.27349
2023-08-02 15:44:00+00:00,203.0,9.96,207.0,11.11,13.68,47.59359,-54.27349
2023-08-02 15:54:00+00:00,200.0,9.33,201.0,10.21,13.68,47.59359,-54.27349
2023-08-02 16:04:00+00:00,207.0,9.01,217.0,10.52,13.68,47.59359,-54.27349
2023-08-02 16:14:00+00:00,206.0,9.37,204.0,10.52,13.68,47.59359,-54.27349
2023-08-02 16:24:00+00:00,211.0,8.39,220.0,9.62,13.68,47.59359,-54.27349
2023-08-02 16:34:00+00:00,206.0,8.6,202.0,9.89,13.68,47.59359,-54.27349
2023-08-02 16:44:00+00:00,211.0,8.91,221.0,11.06,13.68,47.59359,-54.27349
2023-08-02 16:54:00+00:00,215.0,9.55,223.0,11.27,13.68,47.59359,-54.27349
2023-08-02 17:04:00+00:00,214.0,8.49,218.0,10.26,13.68,47.59359,-54.27349
2023-08-02 17:14:00+00:00,210.0,9.34,211.0,10.47,13.53,47.59359,-54.27349
2023-08-02 17:24:00+00:00,211.0,8.55,209.0,9.66,13.53,47.59359,-54.27349
2023-08-02 17:34:00+00:00,214.0,10.22,219.0,11.66,13.53,47.59359,-54.27349
2023-08-02 17:44:00+00:00,211.0,8.98,226.0,11.05,13.53,47.59359,-54.27349
2023-08-02 17:54:00+00:00,207.0,9.21,218.0,11.02,13.53,47.59359,-54.27349
2023-08-02 18:04:00+00:00,212.0,9.17,231.0,11.81,13.53,47.59359,-54.27349
2023-08-02 18:14:00+00:00,205.0,8.83,212.0,9.84,13.76,47.59359,-54.27349
2023-08-02 18:24:00+00:00,211.0,8.87,224.0,10.46,13.76,47.59359,-54.27349
2023-08-02 18:34:00+00:00,208.0,9.04,203.0,9.97,13.76,47.59359,-54.27349
2023-08-02 18:44:00+00:00,212.0,9.92,217.0,11.43,13.76,47.59359,-54.27349
2023-08-02 18:54:00+00:00,213.0,9.24,222.0,10.51,13.76,47.59359,-54.27349
2023-08-02 19:04:00+00:00,216.0,10.34,225.0,11.49,13.76,47.59359,-54.27349
2023-08-02 19:14:00+00:00,211.0,8.78,215.0,9.77,13.68,47.59359,-54.27349
2023-08-02 19:24:00+00:00,207.0,9.38,212.0,10.54,13.68,47.59359,-54.27349
2023-08-02 19:34:00+00:00,210.0,9.08,212.0,10.38,13.68,47.59359,-54.27349
2023-08-02 19:44:00+00:00,210.0,9.24,212.0,10.58,13.68,47.59359,-54.27349
2023-08-02 19:54:00+00:00,207.0,8.23,213.0,9.88,13.68,47.59359,-54.27349
2023-08-02 20:04:00+00:00,209.0,7.64,213.0,8.5,13.68,47.59359,-54.27349
2023-08-02 20:14:00+00:00,212.0,7.77,214.0,9.06,13.53,47.59359,-54.27349
2023-08-02 20:24:00+00:00,208.0,9.52,211.0,10.27,13.53,47.59359,-54.27349
2023-08-02 20:34:00+00:00,208.0,7.84,210.0,9.0,13.53,47.59359,-54.27349
2023-08-02 20:44:00+00:00,210.0,7.98,208.0,9.08,13.53,47.59359,-54.27349
2023-08-02 20:54:00+00:00,210.0,7.91,212.0,8.75,13.53,47.59359,-54.27349
2023-08-02 21:04:00+00:00,210.0,8.86,211.0,9.6,13.53,47.59359,-54.27349
2023-08-02 21:14:00+00:00,211.0,8.88,215.0,9.9,13.53,47.59359,-54.27349
2023-08-02 21:24:00+00:00,213.0,8.63,214.0,9.52,13.53,47.59359,-54.27349
2023-08-02 21:34:00+00:00,210.0,8.16,213.0,9.2,13.53,47.59359,-54.27349
2023-08-02 21:44:00+00:00,209.0,8.24,211.0,9.4,13.53,47.59359,-54.27349
2023-08-02 21:54:00+00:00,204.0,7.71,204.0,8.86,13.53,47.59359,-54.27349
2023-08-02 22:04:00+00:00,207.0,7.78,214.0,8.53,13.53,47.59359,-54.27349
2023-08-02 22:14:01+00:00,213.0,8.18,213.0,9.01,13.13,47.59359,-54.27349
2023-08-02 22:24:01+00:00,214.0,8.49,214.0,9.16,13.13,47.59359,-54.27349
2023-08-02 22:34:01+00:00,210.0,6.73,213.0,7.58,13.13,47.59359,-54.27349
2023-08-02 22:44:01+00:00,207.0,7.25,207.0,8.21,13.13,47.59359,-54.27349
2023-08-02 22:54:01+00:00,211.0,7.16,214.0,8.45,13.13,47.59359,-54.27349
2023-08-02 23:04:01+00:00,212.0,5.91,212.0,6.61,13.13,47.59359,-54.27349
2023-08-02 23:14:01+00:00,216.0,5.17,219.0,6.21,12.65,47.59359,-54.27349
2023-08-02 23:24:01+00:00,213.0,5.35,217.0,6.14,12.65,47.59359,-54.27349
2023-08-02 23:34:01+00:00,213.0,4.6,213.0,5.23,12.65,47.59359,-54.27349
2023-08-02 23:44:01+00:00,213.0,4.38,211.0,5.03,12.65,47.59359,-54.27349
2023-08-02 23:54:01+00:00,209.0,5.55,211.0,6.03,12.65,47.59359,-54.27349
